TimeEST,TemperatureF,Dew PointF,Humidity,Sea Level PressureIn,VisibilityMPH,Wind Direction,Wind SpeedMPH,Gust SpeedMPH,PrecipitationIn,Events,Conditions,WindDirDegrees,DateUTC
12:12 AM,59.0,57.2,94,29.78,3.0,West,15.0,21.9,0.08,Rain,Heavy Rain,270,2012-12-10 05:12:00
12:19 AM,57.2,57.2,100,29.77,3.0,West,11.5,-,0.13,Rain,Heavy Rain,260,2012-12-10 05:19:00
12:41 AM,57.2,55.4,94,29.76,7.0,West,9.2,-,0.17,Rain,Rain,270,2012-12-10 05:41:00
12:54 AM,57.0,55.9,96,29.75,3.0,WSW,10.4,19.6,0.22,Rain,Heavy Rain,250,2012-12-10 05:54:00
1:01 AM,57.2,55.4,94,29.76,3.0,SW,11.5,-,0.05,Rain,Heavy Rain,230,2012-12-10 06:01:00
1:54 AM,57.0,55.9,96,29.73,10.0,SW,11.5,-,0.17,Rain,Light Rain,230,2012-12-10 06:54:00
2:03 AM,57.2,55.4,94,29.74,7.0,SW,11.5,-,0.01,Rain,Rain,230,2012-12-10 07:03:00
2:54 AM,55.9,55.9,100,29.71,7.0,SW,6.9,-,0.11,Rain,Rain,220,2012-12-10 07:54:00
3:36 AM,55.4,55.4,100,29.72,7.0,SSW,9.2,-,0.05,Rain,Rain,200,2012-12-10 08:36:00
3:54 AM,55.9,55.9,100,29.71,9.0,SW,9.2,-,0.08,Rain,Light Rain,220,2012-12-10 08:54:00
4:08 AM,55.4,55.4,100,29.72,6.0,SW,6.9,-,0.02,Rain,Rain,220,2012-12-10 09:08:00
4:54 AM,55.9,55.9,100,29.69,10.0,SW,6.9,-,0.04,,Overcast,220,2012-12-10 09:54:00
5:43 AM,55.4,55.4,100,29.70,10.0,West,11.5,-,N/A,,Overcast,260,2012-12-10 10:43:00
5:48 AM,53.6,53.6,100,29.70,5.0,WNW,12.7,18.4,0.00,Rain,Light Rain,300,2012-12-10 10:48:00
5:54 AM,52.0,52.0,100,29.69,4.0,WNW,8.1,-,0.00,Rain,Light Rain,300,2012-12-10 10:54:00
6:30 AM,51.8,51.8,100,29.71,6.0,WNW,9.2,-,0.00,,Overcast,300,2012-12-10 11:30:00
6:54 AM,51.1,51.1,100,29.71,4.0,NNW,5.8,-,0.01,Rain,Light Rain,330,2012-12-10 11:54:00
7:19 AM,50.0,48.2,94,29.72,6.0,NW,6.9,-,0.02,Rain,Light Rain,310,2012-12-10 12:19:00
7:34 AM,50.0,48.2,94,29.71,5.0,NW,3.5,-,0.03,Rain,Rain,320,2012-12-10 12:34:00
7:54 AM,48.9,48.9,100,29.70,6.0,NW,8.1,-,0.05,Rain,Light Rain,320,2012-12-10 12:54:00
8:19 AM,48.2,48.2,100,29.71,2.5,West,9.2,-,0.03,Rain,Light Rain,280,2012-12-10 13:19:00
8:37 AM,48.2,48.2,100,29.71,7.0,WNW,8.1,-,0.05,Rain,Light Rain,290,2012-12-10 13:37:00
8:54 AM,48.0,48.0,100,29.70,4.0,WNW,8.1,-,0.07,Rain,Light Rain,290,2012-12-10 13:54:00
9:24 AM,48.2,46.4,93,29.71,10.0,WNW,8.1,-,0.01,,Overcast,290,2012-12-10 14:24:00
9:38 AM,46.4,46.4,100,29.72,5.0,West,12.7,-,0.01,Rain,Light Rain,280,2012-12-10 14:38:00
9:54 AM,46.0,45.0,96,29.73,3.0,WNW,11.5,20.7,0.01,Rain,Light Rain,290,2012-12-10 14:54:00
10:41 AM,44.6,44.6,100,29.73,6.0,NW,3.5,-,0.01,Rain,Light Rain,320,2012-12-10 15:41:00
10:54 AM,45.0,44.1,97,29.73,8.0,WNW,10.4,-,0.02,Rain,Light Rain,290,2012-12-10 15:54:00
11:54 AM,43.0,42.1,97,29.73,4.0,WNW,10.4,-,0.03,Rain,Rain,300,2012-12-10 16:54:00
12:35 PM,42.8,39.2,87,29.72,9.0,NW,9.2,-,0.07,Rain,Light Rain,310,2012-12-10 17:35:00
12:54 PM,42.1,39.9,92,29.72,10.0,NW,11.5,-,0.07,Rain,Light Rain,310,2012-12-10 17:54:00
1:27 PM,39.2,37.4,93,29.73,10.0,NW,11.5,-,0.00,,Overcast,310,2012-12-10 18:27:00
1:54 PM,39.0,37.0,93,29.73,2.5,WNW,8.1,18.4,0.02,Rain,Rain,300,2012-12-10 18:54:00
1:59 PM,39.2,37.4,93,29.73,3.0,NW,10.4,-,0.00,Rain,Light Rain,310,2012-12-10 18:59:00
2:08 PM,39.2,37.4,93,29.73,4.0,NW,9.2,-,0.01,Rain,Light Rain,310,2012-12-10 19:08:00
2:10 PM,39.2,37.4,93,29.72,4.0,NW,10.4,-,0.01,Rain,Light Rain,320,2012-12-10 19:10:00
2:18 PM,39.2,37.4,93,29.73,2.5,WNW,10.4,-,0.01,Rain,Light Rain,300,2012-12-10 19:18:00
2:30 PM,39.2,37.4,93,29.74,2.5,NW,13.8,19.6,0.01,,Overcast,310,2012-12-10 19:30:00
2:54 PM,39.9,37.9,93,29.74,6.0,NW,10.4,18.4,0.01,,Overcast,310,2012-12-10 19:54:00
3:16 PM,39.2,37.4,93,29.75,9.0,NW,8.1,-,N/A,,Overcast,320,2012-12-10 20:16:00
3:24 PM,39.2,37.4,93,29.75,10.0,NW,6.9,-,N/A,,Overcast,310,2012-12-10 20:24:00
3:37 PM,39.2,37.4,93,29.75,10.0,WNW,8.1,-,N/A,,Overcast,300,2012-12-10 20:37:00
3:45 PM,39.2,37.4,93,29.76,6.0,WNW,9.2,-,N/A,,Overcast,290,2012-12-10 20:45:00
3:54 PM,39.0,37.0,93,29.76,10.0,WNW,13.8,-,N/A,,Overcast,300,2012-12-10 20:54:00
4:54 PM,37.0,35.1,93,29.80,8.0,NW,13.8,20.7,0.00,,Overcast,320,2012-12-10 21:54:00
5:54 PM,35.1,33.1,92,29.82,10.0,NW,6.9,-,0.00,,Overcast,310,2012-12-10 22:54:00
6:54 PM,34.0,32.0,92,29.83,8.0,NW,5.8,-,0.00,,Overcast,310,2012-12-10 23:54:00
7:41 PM,33.8,32.0,93,29.86,9.0,WNW,9.2,-,N/A,,Overcast,290,2012-12-11 00:41:00
7:54 PM,34.0,32.0,92,29.89,9.0,WNW,11.5,-,N/A,,Overcast,290,2012-12-11 00:54:00
8:37 PM,33.8,30.2,87,29.89,9.0,WNW,11.5,-,N/A,,Overcast,290,2012-12-11 01:37:00
8:54 PM,33.1,30.9,92,29.92,9.0,WNW,12.7,-,N/A,,Overcast,300,2012-12-11 01:54:00
9:54 PM,32.0,28.9,88,29.93,10.0,WNW,11.5,-,N/A,,Overcast,300,2012-12-11 02:54:00
10:54 PM,30.9,28.0,89,29.96,10.0,NW,8.1,-,N/A,,Overcast,310,2012-12-11 03:54:00
11:54 PM,30.9,28.0,89,29.98,10.0,West,11.5,-,N/A,,Overcast,280,2012-12-11 04:54:00